[[{"header":{"parameterUnit":"m.s-1","parameterCategory":1,"la1":30.2991,"la2":30.254,"lo1":-89.0895,"lo2":-89.0444,"dy":0.0017,"dx":0.0017,"nx":28,"ny":28,"refTime":"2023-10-31T03:00:00:Z","depth":0,"parameterNumber":2,"parameterNumberName":"U-component_of_WINDS"},"data":[0,0,0,0,0,0,0,0,0,0,0,0,0,0,0,0,0,0,0,0,0,0,0,0,0,0,0,0,0,0,0,0,0,0,0,0,0,0,0,0,0,0,0,0,0,0,0,0,0,0,0,0,0,0,0,0,0,0,1.784,1.7839,0,1.7824,1.7824,1.7824,1.7801,1.7801,1.78,1.78,1.7782,1.7782,1.7782,0,0,0,0,0,0,0,0,0,0,0,0,0,1.7847,1.7847,1.784,1.7839,1.7839,1.7825,1.7824,1.7824,1.7801,1.7801,1.78,1.78,1.7782,1.7782,1.7782,0,0,0,0,0,0,0,0,0,0,0,0,0,1.7839,1.7847,1.784,1.7826,1.7825,1.7825,1.7824,1.7824,1.7801,1.78,1.78,1.7799,1.7782,1.7782,1.7782,1.7793,0,0,1.7781,1.7781,0,0,0,0,0,0,0,0,1.784,1.7839,1.7828,1.7827,1.7825,1.7814,1.782,1.7813,1.7801,1.781,1.78,1.7799,1.7793,1.7792,1.779,1.7792,1.7791,1.7781,1.7781,1.7781,1.7781,0,0,0,0,0,0,0,1.784,1.7839,1.7833,1.7828,1.7826,1.782,1.7818,1.7819,1.7805,1.7809,1.7807,1.7806,1.7792,1.779,1.779,1.7791,1.7781,1.7781,1.7781,1.7781,1.7802,1.7803,0,0,0,0,0,0,1.7843,1.784,1.7834,1.7833,1.7831,1.7821,1.7819,1.7818,1.7805,1.7802,1.7807,1.7805,1.7791,1.779,1.7789,1.7802,1.7781,1.7781,1.7781,1.7802,1.7803,1.7803,0,0,0,0,0,0,1.7843,1.7843,1.7835,1.7836,1.7835,1.7821,1.7821,1.7818,1.7817,1.7803,1.78,1.7808,1.779,1.7789,1.7792,1.7801,1.7781,1.7781,1.7801,1.7802,1.7803,1.7827,0,0,0,0,0,0,1.7844,1.7843,1.7847,1.7836,1.7835,1.7839,1.7821,1.7818,1.7817,1.7815,1.7803,1.7801,1.779,1.7793,1.7792,1.78,1.778,1.78,1.7801,1.7803,1.7826,1.7829,1.7832,0,0,0,0,0,1.7844,1.7854,1.7848,1.7847,1.784,1.7839,1.7838,1.7826,1.7818,1.7822,1.7813,1.7801,1.78,1.7793,1.7793,1.78,1.7799,1.7801,1.7802,1.7824,1.7828,1.7832,0,0,0,0,0,0,1.7865,1.7852,1.7845,1.7852,1.7847,1.7835,1.784,1.7831,1.7827,1.7825,1.781,1.7808,1.7813,1.7807,1.78,1.7811,1.7798,1.7799,1.7815,1.7819,1.7822,1.7823,1.778,0,0,0,0,0,1.787,1.7872,1.786,1.7867,1.7866,1.7854,1.7853,1.7844,1.7838,1.7836,1.7827,1.7821,1.782,1.7819,1.7817,1.7825,1.7822,1.783,1.7833,1.7836,1.7837,1.7842,1.7845,1.7808,1.7808,1.7808,0,0,1.7881,1.7875,1.7876,1.7871,1.7867,1.7868,1.7852,1.7853,1.7854,1.7836,1.7839,1.7833,1.7825,1.7831,1.7833,1.7826,1.7847,1.7838,1.784,1.784,1.7844,1.7847,1.785,1.7809,1.7809,1.7809,0,0,1.7902,1.7897,1.7903,1.7899,1.7893,1.7885,1.7887,1.7877,1.7872,1.7876,1.7862,1.7863,1.786,1.7856,1.7853,1.7874,1.7863,1.7874,1.789,1.7895,1.7898,1.79,1.7908,1.7911,1.7875,1.7876,1.7876,0,1.7916,1.7918,1.7907,1.791,1.7909,1.7894,1.7899,1.7896,1.7889,1.7888,1.788,1.7878,1.7872,1.7877,1.7883,1.7881,1.7882,1.7875,1.7898,1.7901,1.7903,1.791,1.7913,1.7877,1.7877,1.7877,1.7876,0,1.7936,1.7938,1.7944,1.7939,1.7938,1.7942,1.7931,1.7932,1.7924,1.7917,1.7921,1.7913,1.791,1.791,1.7902,1.7915,1.7911,1.7901,1.7887,1.7908,1.7915,1.7917,1.7879,1.7878,1.7878,1.7878,0,0,1.7968,1.7958,1.796,1.7958,1.7951,1.7952,1.7956,1.7954,1.7955,1.7951,1.7954,1.7953,1.7945,1.7942,1.7933,1.7937,1.7956,1.7927,1.7927,1.7933,1.797,1.7977,1.798,1.7949,1.7949,1.795,1.7971,0,1.7987,1.7994,1.7985,1.7994,1.7996,1.7982,1.7986,1.7982,1.7976,1.7976,1.7969,1.7969,1.7958,1.7956,1.796,1.7953,1.7963,1.7951,1.7951,1.7951,1.7953,1.7984,1.7991,1.8011,1.7973,1.7973,1.7974,0,1.801,1.8009,1.8018,1.8012,1.8012,1.8016,1.8013,1.8014,1.8009,1.8005,1.8003,1.7993,1.7997,1.7984,1.7989,1.7981,1.7981,1.7978,1.7978,1.7977,1.7963,1.7983,1.8017,1.802,1.7978,1.7977,1.7977,0,1.8032,1.8033,1.8039,1.8038,1.803,1.8033,1.803,1.8025,1.8025,1.8023,1.8022,1.8021,1.8019,1.8018,1.8008,1.8,1.8015,1.8001,1.8011,1.8011,1.8013,1.8013,1.8047,1.8014,1.8014,1.8014,1.8014,0,1.8054,1.806,1.8049,1.8053,1.806,1.8049,1.8056,1.8052,1.8048,1.805,1.8038,1.8041,1.8028,1.8029,1.8021,1.8027,1.8026,1.8022,1.802,1.8023,1.8024,1.8022,1.802,1.8015,1.8015,1.8014,1.8014,0,1.808,1.8072,1.8078,1.8071,1.807,1.8075,1.8069,1.8072,1.8067,1.807,1.807,1.8061,1.8061,1.8052,1.805,1.8045,1.8054,1.805,1.8056,1.8054,1.8065,1.8064,1.8098,1.8102,1.8067,1.8067,1.8068,0,1.8094,1.8099,1.8093,1.8095,1.8092,1.8095,1.8095,1.8085,1.8086,1.8082,1.8085,1.8086,1.8085,1.8087,1.808,1.8079,1.8074,1.8087,1.8074,1.8077,1.8074,1.8074,1.8075,1.8089,1.8089,1.809,1.809,0,1.812,1.8117,1.8118,1.8118,1.8119,1.8118,1.8117,1.8119,1.8108,1.811,1.8111,1.8111,1.8111,1.8111,1.8109,1.8105,1.8096,1.8094,1.8096,1.8099,1.8103,1.8101,1.8063,1.8093,1.8093,1.8093,1.8092,1.8092,1.814,1.8144,1.8142,1.8143,1.8142,1.8141,1.8144,1.814,1.8141,1.814,1.8135,1.8137,1.8134,1.8131,1.8128,1.813,1.8124,1.8127,1.8128,1.8128,1.813,1.8103,1.813,1.8129,1.8129,1.8129,1.8129,0,1.8166,1.8164,1.8166,1.8165,1.8167,1.8159,1.8158,1.816,1.8163,1.816,1.8161,1.8163,1.8164,1.8158,1.8157,1.816,1.8156,1.8161,1.816,1.8159,1.8136,1.8134,1.8164,1.8164,1.8164,1.8164,1.8164,1.8164,1.8179,1.8186,1.8183,1.8189,1.8186,1.819,1.819,1.8189,1.8188,1.8191,1.8192,1.8189,1.8185,1.8185,1.8185,1.8183,1.8184,1.819,1.8186,1.8164,1.8161,1.8158,1.8156,1.819,1.819,1.821,1.821,1.821]},{"header":{"parameterUnit":"m.s-1","parameterCategory":1,"la1":30.2991,"la2":30.254,"lo1":-89.0895,"lo2":-89.0444,"dy":0.0017,"dx":0.0017,"nx":28,"ny":28,"refTime":"2023-10-31T03:00:00:Z","depth":0,"parameterNumber":3,"parameterNumberName":"V-component_of_WINDS"},"data":[0,0,0,0,0,0,0,0,0,0,0,0,0,0,0,0,0,0,0,0,0,0,0,0,0,0,0,0,0,0,0,0,0,0,0,0,0,0,0,0,0,0,0,0,0,0,0,0,0,0,0,0,0,0,0,0,0,0,-8.0341,-8.0343,0,-8.0451,-8.0452,-8.0453,-8.0409,-8.0406,-8.0404,-8.0401,-8.0506,-8.0511,-8.0516,0,0,0,0,0,0,0,0,0,0,0,0,0,-8.0088,-8.0093,-8.0341,-8.0343,-8.0344,-8.0451,-8.0452,-8.0454,-8.0409,-8.0406,-8.0403,-8.04,-8.0504,-8.0511,-8.0517,0,0,0,0,0,0,0,0,0,0,0,0,0,-8.0197,-8.0094,-8.0341,-8.0335,-8.0335,-8.0451,-8.0452,-8.0454,-8.041,-8.0406,-8.0402,-8.0399,-8.0502,-8.051,-8.0518,-8.0643,0,0,-8.0541,-8.0545,0,0,0,0,0,0,0,0,-8.0191,-8.0207,-8.0334,-8.0336,-8.0336,-8.0412,-8.0401,-8.0517,-8.0411,-8.0381,-8.0401,-8.0397,-8.0478,-8.0487,-8.0516,-8.0648,-8.0652,-8.0542,-8.0547,-8.055,-8.0552,0,0,0,0,0,0,0,-8.0184,-8.0202,-8.0384,-8.0336,-8.0338,-8.0325,-8.0336,-8.0423,-8.0449,-8.0384,-8.0381,-8.0395,-8.0477,-8.0509,-8.0518,-8.0654,-8.0542,-8.0549,-8.0554,-8.0557,-8.0895,-8.0899,0,0,0,0,0,0,-8.0177,-8.0196,-8.0381,-8.0388,-8.0253,-8.0333,-8.0345,-8.0392,-8.0449,-8.0454,-8.0398,-8.0392,-8.0497,-8.0509,-8.0522,-8.0673,-8.055,-8.0557,-8.0562,-8.0891,-8.0896,-8.0901,0,0,0,0,0,0,-8.0172,-8.0194,-8.0377,-8.0291,-8.0313,-8.0341,-8.0394,-8.0396,-8.0427,-8.0459,-8.0463,-8.0425,-8.0495,-8.0511,-8.0614,-8.0676,-8.0561,-8.0568,-8.0886,-8.0893,-8.0899,-8.0976,0,0,0,0,0,0,-8.0165,-8.0192,-8.0241,-8.0293,-8.0318,-8.0469,-8.0398,-8.0401,-8.0442,-8.0435,-8.0486,-8.0491,-8.0493,-8.0603,-8.0622,-8.0685,-8.0574,-8.088,-8.0889,-8.0897,-8.0968,-8.0985,-8.0999,0,0,0,0,0,-8.0156,-8.0257,-8.0244,-8.0267,-8.0381,-8.0473,-8.0487,-8.0489,-8.0447,-8.0496,-8.0517,-8.0489,-8.0666,-8.0614,-8.0635,-8.0701,-8.0876,-8.0886,-8.0896,-8.0962,-8.0982,-8.0998,0,0,0,0,0,0,-8.0209,-8.0263,-8.025,-8.0371,-8.0418,-8.0465,-8.0527,-8.051,-8.0568,-8.0559,-8.0557,-8.0569,-8.0676,-8.0699,-8.0639,-8.0826,-8.0765,-8.0779,-8.0807,-8.0827,-8.0842,-8.0834,-8.0581,0,0,0,0,0,-8.0236,-8.0308,-8.0351,-8.0453,-8.0478,-8.0499,-8.0539,-8.0537,-8.0584,-8.0603,-8.0631,-8.0677,-8.0742,-8.0786,-8.0848,-8.0972,-8.0982,-8.1028,-8.1043,-8.1055,-8.1067,-8.1135,-8.1156,-8.0933,-8.0933,-8.0933,0,0,-8.029,-8.0328,-8.0374,-8.0465,-8.0501,-8.0575,-8.0515,-8.0595,-8.0649,-8.0614,-8.0715,-8.0737,-8.0787,-8.0902,-8.0954,-8.0924,-8.1132,-8.1067,-8.1077,-8.1083,-8.1147,-8.1169,-8.1187,-8.0939,-8.0938,-8.0937,0,0,-8.0426,-8.0463,-8.0554,-8.0592,-8.0649,-8.0662,-8.0684,-8.0735,-8.0749,-8.0851,-8.0826,-8.0889,-8.1003,-8.104,-8.1074,-8.1228,-8.1204,-8.1248,-8.1327,-8.1393,-8.141,-8.1426,-8.1481,-8.1501,-8.126,-8.126,-8.126,0,-8.0486,-8.0598,-8.0602,-8.0685,-8.0726,-8.0701,-8.0792,-8.0828,-8.0901,-8.0929,-8.0895,-8.1039,-8.107,-8.1194,-8.1232,-8.126,-8.1284,-8.1241,-8.1408,-8.1424,-8.1438,-8.1491,-8.1512,-8.1265,-8.1264,-8.1264,-8.1263,0,-8.0669,-8.0747,-8.0813,-8.0888,-8.0936,-8.1023,-8.1038,-8.1086,-8.1081,-8.1097,-8.1201,-8.1239,-8.1309,-8.1338,-8.1332,-8.1461,-8.1441,-8.1408,-8.1346,-8.1464,-8.1514,-8.1534,-8.1272,-8.127,-8.1269,-8.1267,0,0,-8.0841,-8.0919,-8.0943,-8.0978,-8.1039,-8.1099,-8.1184,-8.1256,-8.1297,-8.1348,-8.1419,-8.1517,-8.1488,-8.1526,-8.1524,-8.1582,-8.1702,-8.1542,-8.1543,-8.1571,-8.1848,-8.1872,-8.1896,-8.1688,-8.1692,-8.1695,-8.1844,0,-8.0982,-8.1135,-8.1142,-8.128,-8.1352,-8.1331,-8.1405,-8.145,-8.1468,-8.153,-8.1549,-8.1619,-8.1575,-8.1598,-8.1655,-8.1676,-8.1758,-8.1665,-8.1752,-8.1756,-8.1741,-8.1922,-8.1948,-8.2086,-8.1863,-8.1866,-8.1868,0,-8.1168,-8.1229,-8.1376,-8.1429,-8.146,-8.1527,-8.1594,-8.1654,-8.1705,-8.1714,-8.1758,-8.1748,-8.1834,-8.1771,-8.1888,-8.1825,-8.1861,-8.1877,-8.1883,-8.1891,-8.1819,-8.1934,-8.213,-8.2151,-8.1899,-8.1896,-8.1894,0,-8.128,-8.1398,-8.1502,-8.1532,-8.1596,-8.1644,-8.1673,-8.172,-8.1763,-8.1821,-8.1849,-8.1915,-8.1951,-8.2001,-8.2009,-8.1962,-8.2127,-8.2064,-8.2136,-8.2136,-8.2171,-8.2169,-8.2376,-8.2195,-8.2195,-8.2194,-8.2194,0,-8.1437,-8.1528,-8.1553,-8.1617,-8.1717,-8.1724,-8.1822,-8.1847,-8.189,-8.1956,-8.194,-8.2003,-8.2009,-8.2074,-8.208,-8.2177,-8.2193,-8.2201,-8.2202,-8.2203,-8.2202,-8.2226,-8.2217,-8.22,-8.2198,-8.2197,-8.2196,0,-8.1578,-8.1599,-8.1711,-8.1764,-8.178,-8.1852,-8.1896,-8.1956,-8.1974,-8.2059,-8.2079,-8.2105,-8.218,-8.2193,-8.228,-8.2284,-8.24,-8.2391,-8.2385,-8.2383,-8.2455,-8.2448,-8.2685,-8.2716,-8.2514,-8.2516,-8.2518,0,-8.1678,-8.1748,-8.181,-8.1855,-8.1887,-8.196,-8.2005,-8.2014,-8.2061,-8.2125,-8.2178,-8.2252,-8.2311,-8.2431,-8.2457,-8.2524,-8.2516,-8.2594,-8.2525,-8.2525,-8.2517,-8.2513,-8.252,-8.2607,-8.2609,-8.2611,-8.2612,0,-8.1852,-8.186,-8.1927,-8.1999,-8.2054,-8.211,-8.2163,-8.22,-8.2216,-8.2269,-8.2348,-8.2394,-8.2485,-8.2558,-8.2626,-8.2652,-8.2635,-8.2634,-8.2655,-8.2656,-8.265,-8.2655,-8.2421,-8.2628,-8.2627,-8.2626,-8.2625,-8.2624,-8.1975,-8.2037,-8.2092,-8.2167,-8.2209,-8.226,-8.232,-8.2346,-8.2412,-8.2489,-8.249,-8.2575,-8.2624,-8.2713,-8.2745,-8.2811,-8.2785,-8.2815,-8.2822,-8.2829,-8.2837,-8.264,-8.2823,-8.2822,-8.2822,-8.2822,-8.2821,0,-8.2149,-8.2184,-8.2254,-8.2331,-8.239,-8.2372,-8.243,-8.2481,-8.2557,-8.2606,-8.2666,-8.2757,-8.2828,-8.2861,-8.2931,-8.2977,-8.2971,-8.2995,-8.2992,-8.2998,-8.2855,-8.2831,-8.2999,-8.2999,-8.2999,-8.2999,-8.2999,-8.2999,-8.2247,-8.2351,-8.2365,-8.249,-8.2523,-8.2609,-8.2644,-8.269,-8.273,-8.2833,-8.2893,-8.2915,-8.2957,-8.3031,-8.3095,-8.3103,-8.3129,-8.3157,-8.3161,-8.3026,-8.3008,-8.2991,-8.2968,-8.3163,-8.3163,-8.3299,-8.3301,-8.3302]}]]